Wind_Speed
27 27 27 27 26 24 22 21 20 20 20 21 25 32 40 48 52 53 53 53 53 52 52 50 49 48 47 46 45 44 43 43 44 44 44 44 44 44 44 44 45 47 48 49 50 51 52 54 55 56 56 57 57 56 57 62 68 72 73 75 75 74 72 70 65 60 56 53 52 55 57 58 57 55 53 53 52 52 50 48 47 46 45 42 40 40 40 39
27 28 28 28 27 27 25 24 22 20 20 20 21 23 28 37 46 52 55 55 55 55 55 53 52 51 50 49 47 47 46 45 45 45 45 45 46 46 45 45 46 46 48 49 50 51 52 54 56 58 58 59 59 59 60 60 63 65 66 69 69 71 74 73 69 63 58 56 55 57 59 59 59 57 56 55 54 53 51 49 47 46 44 44 44 44 42 40
26 27 28 28 28 28 27 26 25 23 21 20 20 21 22 25 32 43 51 56 58 57 57 57 55 54 53 52 50 49 49 48 47 47 47 47 47 47 47 47 47 48 48 49 51 52 52 54 56 58 59 60 60 60 61 62 63 63 64 64 61 62 70 75 75 69 63 59 58 60 61 61 60 59 58 57 55 54 53 51 47 45 45 47 48 47 44 41
25 26 27 28 29 29 28 28 27 26 25 22 21 21 21 22 24 29 38 49 56 59 60 59 59 57 56 55 53 52 51 51 50 49 48 48 49 49 48 48 48 49 49 50 51 52 53 54 56 58 59 60 60 62 62 62 63 63 64 63 59 57 61 70 77 75 67 62 61 62 63 63 62 61 61 59 58 57 54 51 47 47 49 51 51 49 46 43
25 25 26 27 28 29 29 29 28 28 27 26 24 22 21 21 22 23 27 35 46 55 61 62 62 61 59 58 57 55 54 54 53 52 51 51 50 50 50 49 49 50 50 51 52 52 53 53 55 57 59 60 60 62 63 63 63 64 63 62 60 59 57 62 74 78 72 67 65 65 66 66 64 64 63 62 62 59 54 51 50 52 53 53 52 49 48 45
25 25 26 26 27 27 28 29 29 29 28 28 27 26 24 22 21 22 23 26 32 42 54 61 64 64 63 61 60 59 58 58 56 55 55 54 53 53 52 51 51 51 51 52 53 53 53 53 54 56 58 59 60 61 61 62 64 65 63 62 62 61 59 58 66 76 77 72 69 67 68 68 68 67 65 65 63 60 56 54 54 55 54 54 53 51 48 47
25 25 26 26 26 27 27 28 29 29 29 28 29 28 27 25 23 22 22 24 25 30 40 52 62 65 66 64 63 62 60 60 60 59 58 57 56 55 55 54 53 52 52 53 53 54 54 54 55 55 57 58 59 60 61 61 64 67 64 63 64 63 61 59 61 71 78 77 73 71 71 72 72 71 69 68 65 62 59 58 57 57 56 56 56 53 50 48
26 26 26 26 26 26 27 27 28 29 29 29 29 29 29 28 27 25 23 22 24 25 29 38 50 61 67 67 67 65 63 63 63 62 62 61 60 59 58 56 55 55 54 54 54 55 56 55 55 56 57 57 58 59 60 61 63 67 66 64 65 65 64 62 60 65 74 79 79 76 75 75 75 76 75 71 68 65 63 60 59 59 59 58 58 56 53 50
27 27 26 27 27 27 27 27 28 28 29 29 29 30 30 29 29 28 26 24 23 24 25 28 36 49 60 67 69 67 66 67 66 65 65 65 64 63 61 60 59 58 57 56 55 56 56 57 56 56 57 57 57 58 59 62 64 66 67 65 65 66 66 65 63 63 67 74 81 82 81 78 78 80 80 76 72 70 67 65 62 62 61 61 60 58 56 53
28 28 28 27 28 28 28 28 28 28 29 29 30 30 30 30 30 30 29 28 26 24 24 25 28 35 47 60 68 69 68 70 69 68 68 68 67 66 65 63 62 61 60 59 58 57 57 57 57 57 58 58 59 59 59 62 64 65 66 66 65 66 67 67 66 65 65 68 74 80 84 83 82 84 83 79 76 74 72 69 65 64 64 64 63 61 59 56
29 29 29 28 28 29 29 29 29 28 29 29 30 31 31 31 31 30 30 29 28 26 24 24 25 27 34 46 58 65 67 70 72 70 69 69 70 69 68 67 65 65 64 63 62 61 59 59 59 59 59 60 59 60 60 60 61 63 65 66 64 65 67 68 68 67 66 66 67 72 78 82 85 86 84 83 80 78 76 73 70 68 67 68 67 65 63 61
29 29 29 29 29 29 30 30 30 29 29 29 30 31 32 32 32 31 31 30 29 28 26 24 24 24 27 32 44 56 63 68 72 73 71 71 71 71 71 70 69 68 67 66 65 64 63 62 61 61 60 60 60 60 60 60 60 61 64 67 65 64 66 67 67 67 67 68 67 69 74 76 77 77 80 85 84 81 80 76 75 74 72 70 70 69 68 66
30 30 30 30 29 30 30 30 30 30 30 30 30 31 32 32 32 32 31 31 30 29 27 25 24 24 23 25 32 45 56 63 69 73 74 73 72 72 72 72 72 72 70 70 69 67 66 66 65 63 62 62 61 61 61 61 61 61 62 66 66 66 67 65 64 65 65 68 68 70 74 72 68 68 74 82 84 85 84 81 80 79 76 74 72 71 71 70
31 31 31 31 30 30 30 30 31 31 31 31 31 31 32 33 33 32 31 31 30 29 28 28 26 24 22 23 27 35 45 55 63 70 74 75 73 73 74 73 73 74 73 73 72 71 69 69 68 67 65 64 62 62 62 63 63 62 63 66 67 69 70 66 63 63 63 65 65 67 74 72 67 68 71 75 80 85 86 84 84 82 80 78 75 73 72 72
32 32 32 32 31 31 31 31 31 32 32 32 32 32 32 34 34 33 32 31 30 29 29 29 28 26 23 23 26 29 34 44 55 64 70 74 75 75 74 74 74 74 74 75 74 73 73 72 71 70 69 67 66 65 64 64 64 65 66 67 67 69 69 66 63 62 61 61 62 65 72 72 68 67 66 69 73 77 82 84 84 83 82 81 78 77 76 75
33 33 33 32 32 32 32 31 31 32 32 33 33 32 33 34 35 35 33 32 31 30 29 30 29 28 26 25 25 26 28 33 43 54 63 69 73 75 75 75 75 75 74 75 75 76 75 75 74 73 72 71 70 68 67 67 66 66 67 68 68 69 68 66 63 62 59 59 61 64 71 72 68 64 60 62 64 67 73 78 81 83 82 82 81 79 78 79
34 34 34 34 33 33 33 33 32 32 32 33 33 33 33 34 35 37 36 34 33 32 32 32 31 31 29 27 26 25 25 27 32 41 52 62 69 73 75 76 76 76 76 75 75 76 77 77 76 75 74 74 72 71 72 71 67 66 68 69 70 70 69 67 63 60 58 59 59 61 68 72 67 62 58 58 60 60 64 68 73 78 80 81 80 79 79 79
34 35 36 36 35 35 35 34 33 33 32 33 33 33 33 34 36 38 38 35 34 34 33 33 33 33 31 28 27 26 24 25 27 31 39 50 60 67 72 75 77 77 77 77 76 76 77 78 78 78 77 76 75 75 75 71 68 69 70 70 69 68 67 64 60 59 58 59 59 59 66 70 66 62 59 56 58 59 60 63 66 70 74 76 76 76 75 75
35 35 36 37 37 37 37 36 35 34 34 33 33 33 34 34 34 37 38 35 32 33 33 33 33 33 32 30 28 28 26 25 25 28 31 38 48 57 65 71 75 76 76 77 77 76 77 78 79 79 78 77 76 76 76 73 72 73 72 71 70 68 66 62 60 60 60 61 63 62 66 70 67 64 61 56 57 61 62 64 66 68 70 72 73 72 71 70
35 36 37 37 38 38 38 38 37 36 36 35 34 33 32 30 28 30 35 36 33 33 33 33 34 33 33 31 29 28 27 26 25 27 29 33 39 48 56 63 69 74 75 75 76 78 78 79 80 78 76 76 77 77 75 74 75 75 75 74 72 71 68 64 64 65 64 65 66 65 68 70 68 65 61 57 57 62 65 66 67 68 68 69 69 69 68 67
36 36 37 38 38 39 40 40 39 38 38 37 36 36 34 32 31 30 33 36 36 35 34 34 34 34 33 33 31 29 28 27 27 27 28 30 34 40 49 55 61 67 72 75 76 78 80 81 79 76 76 78 77 76 75 76 77 77 78 77 76 75 70 67 69 69 68 69 67 65 70 72 70 67 63 59 57 60 63 66 67 67 67 67 67 67 66 65
37 38 38 38 39 40 41 41 41 40 40 40 39 39 37 36 36 35 35 37 37 37 37 36 35 35 34 34 33 30 30 30 29 28 28 28 30 34 41 49 54 59 65 72 76 78 80 81 78 77 79 79 77 75 75 76 78 78 79 80 79 75 72 72 73 72 72 73 69 67 71 72 71 70 66 62 59 58 60 64 65 65 65 66 66 66 65 64
38 39 39 39 40 41 42 42 43 42 42 42 41 41 40 38 37 37 37 38 38 39 39 38 37 36 35 35 34 33 32 31 32 31 29 29 29 31 35 41 49 54 59 66 72 77 79 78 76 77 79 79 78 76 75 76 78 79 79 82 81 75 75 77 76 75 76 75 72 71 73 73 72 72 69 64 60 59 59 62 63 64 64 63 63 63 63 63
38 39 40 40 41 41 42 43 44 44 43 43 43 42 42 41 40 39 38 38 39 40 41 40 38 38 37 37 36 35 34 33 33 34 32 31 30 31 32 36 43 49 54 59 65 73 77 75 74 77 78 78 78 78 78 78 78 79 79 81 81 78 78 80 78 78 77 77 76 75 77 76 73 72 70 64 61 60 58 59 61 63 64 62 61 61 61 60
39 39 40 41 42 42 43 43 44 45 45 44 44 44 43 42 41 41 40 39 39 40 41 40 40 40 39 39 38 38 37 35 34 35 34 34 33 32 32 35 38 41 48 54 60 67 71 71 74 77 77 77 77 78 78 78 79 79 79 79 79 79 80 81 80 79 78 79 77 77 81 81 74 72 71 64 62 61 57 58 60 60 61 62 62 61 59 58
40 40 40 41 42 42 43 44 44 45 45 45 45 44 44 44 43 43 42 40 40 40 39 40 41 41 40 41 41 40 40 38 36 36 36 36 35 35 34 35 36 37 43 50 56 63 65 67 72 76 76 76 77 77 78 78 80 80 78 76 76 78 80 80 80 80 81 81 78 77 81 83 78 74 70 65 63 61 58 58 58 58 58 60 61 60 58 56
41 41 41 42 43 43 43 44 44 44 45 45 45 45 45 45 45 44 44 43 42 40 39 40 43 43 43 43 42 42 42 40 39 38 38 38 37 37 37 37 37 37 40 47 53 56 57 61 69 74 75 76 77 78 77 76 80 81 77 73 74 76 77 78 77 78 79 80 80 78 78 83 83 75 68 66 66 63 60 58 57 56 55 55 57 58 56 56
42 42 42 42 44 45 45 44 45 45 45 45 45 45 46 46 46 46 46 46 44 41 41 42 43 44 45 45 45 44 43 42 40 39 39 40 40 40 39 39 39 39 40 45 47 46 51 59 65 70 73 75 77 77 75 74 78 80 76 73 73 74 74 75 75 76 77 78 82 82 78 83 85 76 69 69 69 65 60 56 55 53 53 52 53 55 55 55
43 43 43 43 44 45 46 47 46 46 46 46 46 46 46 47 47 47 47 47 46 44 43 43 44 45 47 47 47 46 46 45 44 41 40 41 42 42 43 42 41 42 41 45 44 40 48 57 62 67 72 75 76 75 75 74 75 77 77 75 74 73 74 74 75 75 75 78 83 84 81 84 85 79 75 73 69 64 58 55 53 52 53 53 53 54 54 53
44 44 44 44 44 45 46 47 48 47 46 46 47 47 47 48 48 49 49 48 49 48 45 45 45 45 47 48 48 47 46 46 46 45 42 42 42 43 45 44 44 44 43 45 44 41 45 53 58 64 67 71 73 74 74 74 74 75 76 76 74 74 75 74 76 74 73 79 85 84 82 85 86 83 80 76 68 62 59 56 55 54 54 54 53 54 54 54
46 45 45 45 45 46 46 47 48 48 47 47 48 48 49 49 49 49 50 50 51 50 48 48 48 47 48 48 49 48 46 45 46 46 45 44 44 44 45 46 46 46 45 45 45 44 47 51 55 59 61 66 70 73 74 73 73 74 75 76 73 74 75 75 76 73 73 82 85 82 81 85 90 85 80 79 70 65 63 59 56 56 55 55 54 54 54 53
47 46 45 45 45 47 48 48 48 48 48 48 48 49 50 51 51 50 51 53 54 52 51 51 51 50 49 49 50 50 48 46 45 46 46 45 46 46 47 47 48 48 47 46 45 46 50 51 52 54 57 61 66 72 74 72 72 73 74 73 70 71 73 75 78 76 79 85 82 80 81 85 91 86 80 80 75 69 67 62 59 57 55 55 54 53 53 52
48 47 46 46 46 48 49 49 49 49 48 49 49 50 50 52 53 53 53 54 55 56 55 54 53 52 52 51 50 51 50 49 47 47 47 47 47 46 47 48 49 50 49 47 47 48 50 51 51 52 54 57 61 67 71 71 71 71 74 74 70 69 70 73 79 80 82 85 82 81 82 84 90 85 78 80 78 73 70 65 64 60 56 55 54 53 53 52
48 48 47 46 47 50 51 51 51 50 50 50 50 51 52 53 54 54 56 56 57 58 59 58 57 56 54 53 52 52 51 51 50 50 50 49 49 48 48 49 50 50 50 49 48 49 51 51 51 51 54 55 57 61 65 67 69 69 70 71 69 69 69 71 76 78 81 83 81 82 82 87 90 78 71 77 79 77 74 69 66 63 59 57 55 54 53 52
49 49 48 47 48 51 53 52 52 51 51 52 52 52 53 54 55 56 57 58 59 61 61 61 60 58 56 55 54 53 52 53 53 53 53 52 51 49 49 50 49 49 50 50 50 49 52 52 50 50 53 55 55 57 59 62 67 70 69 69 68 68 69 71 73 74 74 76 79 83 83 87 88 75 70 76 77 78 78 72 68 66 62 60 58 56 54 53
50 50 49 47 49 52 54 54 53 53 53 54 54 53 54 54 56 58 59 60 61 61 62 62 61 60 59 57 55 55 55 56 56 56 56 54 53 51 50 49 49 48 48 50 51 51 52 52 50 50 52 56 57 56 56 58 63 67 69 70 69 67 67 68 71 70 66 68 76 84 83 84 86 80 75 74 74 77 78 73 71 68 66 64 61 58 58 57
52 51 49 48 50 53 55 55 55 55 55 56 55 55 55 55 56 58 60 61 62 62 62 62 62 62 62 60 59 58 58 59 59 59 58 57 55 53 51 50 49 48 47 48 49 51 53 52 50 50 52 55 57 57 56 57 59 60 62 64 64 64 64 62 65 66 66 69 75 82 84 85 87 84 77 74 75 76 76 74 73 70 68 67 63 61 61 60
54 54 51 48 50 54 56 57 56 56 57 58 57 57 58 57 58 59 60 62 63 63 63 63 63 64 63 63 62 62 62 62 62 62 60 59 57 55 53 52 50 49 48 47 48 50 53 52 49 49 53 54 56 58 57 55 56 56 56 54 54 59 62 61 63 65 67 69 73 79 83 85 89 87 79 76 74 75 77 77 75 71 70 70 67 65 64 63
57 57 54 50 51 55 57 59 59 58 59 60 59 60 61 61 60 60 61 61 62 63 63 63 65 67 66 65 66 66 65 64 64 64 63 61 59 56 54 53 51 50 49 48 48 50 52 53 51 48 50 53 55 58 59 57 55 55 55 52 49 51 54 58 62 63 64 67 69 75 77 80 87 87 81 77 75 76 79 78 76 74 72 72 71 69 68 66
60 60 57 53 54 56 58 61 61 61 62 62 60 62 64 63 62 62 62 61 61 62 64 64 66 68 68 69 70 68 67 67 66 65 64 61 59 56 54 54 52 52 51 49 49 49 50 53 53 48 47 52 55 57 60 59 56 55 54 54 53 52 52 53 57 58 60 63 66 70 75 78 83 84 82 79 78 79 80 78 78 78 76 75 74 73 71 68
62 62 60 58 58 58 59 62 63 64 65 64 63 63 65 64 64 64 63 63 63 63 64 66 66 68 71 72 71 69 69 70 67 65 64 60 57 55 54 53 53 52 52 50 48 48 48 51 53 50 46 49 53 56 58 59 58 56 55 55 54 56 56 56 58 57 56 60 62 66 73 77 80 82 81 81 82 82 83 82 81 80 79 78 77 76 75 71
64 64 62 62 61 60 61 64 64 67 68 67 65 65 65 65 66 67 65 64 65 65 66 68 67 69 72 72 71 71 71 71 68 65 62 57 54 53 52 52 52 51 51 50 47 46 47 49 52 51 47 47 50 54 57 59 59 57 58 58 54 54 57 59 62 61 58 59 60 61 66 71 76 81 80 79 82 85 85 84 84 82 81 80 79 78 78 76
66 65 64 65 63 62 64 66 66 69 71 69 67 66 66 66 68 69 68 67 68 67 69 71 71 72 72 71 71 72 71 69 68 64 58 55 52 49 48 51 51 49 49 48 45 44 46 48 50 50 49 46 47 51 56 59 60 58 60 62 59 57 58 59 61 63 64 62 59 60 62 62 66 76 81 80 81 85 86 86 85 84 83 81 81 80 79 78
68 67 66 67 67 65 66 67 68 72 73 71 70 69 67 68 69 70 70 70 70 71 72 74 75 75 74 72 73 71 68 66 65 60 54 53 52 46 44 47 47 47 48 45 43 43 44 46 48 49 49 47 45 46 52 57 60 61 62 64 65 64 63 62 60 61 65 64 61 63 66 63 59 63 75 82 83 84 86 86 84 83 83 82 81 81 80 79
70 69 68 69 71 70 68 66 69 74 74 73 74 73 71 71 72 72 71 71 72 75 77 78 77 78 77 76 73 68 64 60 58 56 53 53 51 45 41 42 44 46 45 42 42 43 42 42 44 46 47 47 44 43 47 52 58 62 61 61 64 67 68 67 63 62 63 63 63 63 63 64 63 62 66 76 83 84 84 85 84 82 82 82 81 81 81 80
72 72 70 71 75 76 73 69 70 74 75 76 78 77 75 76 76 75 75 73 74 78 81 80 80 80 79 77 73 67 60 55 52 53 52 51 49 44 39 39 42 43 40 39 40 41 41 39 38 40 43 44 43 42 44 48 54 61 62 59 60 64 69 72 72 69 64 63 66 66 60 57 60 65 66 68 74 80 81 82 83 83 82 83 83 82 82 81
73 74 72 74 78 81 80 77 76 77 77 78 81 81 80 80 80 79 79 79 79 82 83 82 82 81 78 74 69 64 58 52 50 50 49 49 46 41 37 37 39 38 36 38 41 40 42 40 36 36 38 39 40 40 41 46 52 57 62 63 61 61 65 70 75 76 71 69 67 64 63 60 54 57 62 63 67 74 77 78 81 83 84 84 84 84 82 82
75 76 75 77 81 84 84 84 83 84 84 84 85 85 85 85 84 83 84 85 85 85 84 83 82 79 75 70 64 60 55 49 46 46 45 44 40 36 34 35 36 34 35 41 43 42 44 43 38 36 36 35 36 36 36 41 48 53 58 63 65 66 67 68 72 74 75 77 72 63 64 66 58 52 55 58 62 68 72 75 77 81 84 85 86 85 83 82
77 79 80 81 85 85 85 86 86 88 89 89 90 92 90 90 89 87 86 85 84 84 82 81 79 73 68 64 58 56 52 46 44 44 42 39 35 32 32 35 35 32 35 43 46 45 48 46 40 37 36 33 33 33 32 33 40 47 53 59 64 68 71 72 73 73 73 77 78 72 69 68 61 55 54 56 59 62 65 70 74 78 81 83 84 85 85 84
80 83 84 86 90 89 87 88 88 91 92 91 94 95 93 92 91 89 85 81 79 79 76 74 70 64 60 58 57 56 51 44 44 44 39 36 34 33 35 38 36 33 38 45 46 45 47 46 40 37 38 36 31 32 34 33 35 40 47 54 61 67 71 74 75 75 75 76 76 76 77 72 62 56 56 59 62 61 59 63 70 75 78 78 79 82 84 84
82 85 86 90 94 93 92 92 92 94 96 94 95 95 92 92 91 86 81 76 73 71 67 63 59 55 55 58 59 57 50 45 47 44 38 39 38 36 39 41 38 38 43 47 46 43 43 43 40 37 41 40 33 34 39 38 38 38 40 44 53 62 68 72 73 74 76 78 77 78 81 76 65 59 62 65 66 64 58 58 64 69 73 74 74 77 79 80
84 88 89 93 98 97 96 96 96 98 99 97 96 94 91 89 86 79 75 73 68 62 58 56 56 56 58 58 58 56 52 50 50 44 42 46 45 41 42 42 40 42 45 48 50 47 44 43 42 42 44 42 37 39 42 42 42 40 34 35 43 52 61 69 75 76 76 78 80 80 81 79 71 66 65 65 66 66 62 59 61 65 67 69 70 72 75 77
Wind_Direction
351 351 351 349 348 347 345 341 334 323 312 297 280 265 254 249 247 246 245 244 245 246 246 246 246 246 245 243 243 244 244 245 244 242 240 239 238 237 236 237 238 239 239 238 236 234 233 233 233 232 232 231 231 232 232 231 231 232 234 234 234 234 233 232 232 232 231 230 230 232 233 234 235 235 234 233 231 231 230 230 231 234 237 237 236 234 234 236
350 350 350 349 348 348 347 345 342 336 327 316 304 288 271 258 251 247 245 244 244 244 245 245 245 246 245 244 242 242 243 244 244 243 242 240 239 238 236 236 237 238 240 240 238 235 233 233 233 233 232 232 232 232 232 232 232 233 235 236 236 236 235 234 233 233 232 230 230 232 234 234 235 235 235 234 233 233 232 232 232 235 238 239 239 236 235 236
349 349 348 348 347 347 347 346 344 343 338 330 320 309 296 279 263 253 248 245 244 243 244 244 244 244 245 245 243 242 241 242 243 243 243 241 240 239 237 236 236 237 238 239 239 237 235 234 234 234 233 233 233 233 233 233 233 234 235 235 236 238 237 235 234 233 232 231 230 231 234 235 235 236 236 236 235 234 234 233 233 234 237 238 240 239 237 237
347 347 347 347 346 345 345 346 345 344 343 339 333 323 312 301 287 269 256 248 245 243 243 244 244 243 243 244 243 242 241 241 241 242 243 242 242 241 239 237 237 237 237 237 238 239 238 235 234 234 234 234 234 234 235 235 235 236 236 236 237 240 240 236 234 234 233 232 231 231 234 235 235 236 236 236 236 235 235 235 235 234 235 237 240 242 241 239
344 344 344 345 345 344 343 343 344 344 343 342 340 335 326 315 304 292 276 260 250 244 242 242 243 243 242 242 243 242 241 241 241 241 242 242 242 242 240 239 238 237 237 237 238 239 239 238 236 235 234 234 234 235 236 237 238 237 237 238 239 240 241 238 235 234 234 233 232 231 233 235 235 236 236 236 236 236 235 235 236 235 236 238 239 241 243 243
339 340 340 342 342 341 341 341 341 342 343 342 341 339 336 329 317 306 295 281 265 252 245 242 241 242 242 241 241 241 241 241 240 240 240 241 241 241 241 240 239 238 237 237 238 239 239 240 239 237 235 234 234 235 236 237 239 238 237 238 239 239 240 238 235 234 234 234 233 232 233 235 236 235 236 236 236 236 236 235 236 237 237 239 240 240 242 244
336 337 337 337 338 338 338 339 339 339 340 340 339 339 338 336 330 321 309 297 285 269 254 245 242 241 241 241 241 240 240 240 240 240 239 240 240 240 240 240 240 240 239 237 238 239 239 240 240 239 238 236 235 234 234 235 238 238 237 238 239 239 240 238 235 234 235 235 234 234 234 235 236 236 235 235 236 237 236 235 236 238 239 239 241 241 241 243
334 334 334 334 334 335 335 336 337 337 337 337 337 336 336 335 334 331 324 312 300 288 273 257 246 242 240 240 240 240 240 239 239 239 239 238 239 239 239 239 240 240 240 239 238 238 239 240 240 241 240 239 238 236 235 235 235 237 237 237 239 239 240 239 236 234 234 235 235 235 234 235 236 237 236 235 236 237 236 236 236 238 239 241 242 243 243 243
333 333 333 332 332 331 332 332 334 335 335 335 334 334 333 333 333 333 331 325 314 301 290 275 259 247 242 240 240 239 240 241 238 238 239 238 238 238 238 238 239 239 240 240 239 239 239 240 241 241 241 241 241 239 237 236 234 236 237 237 238 239 240 240 238 235 233 234 235 235 235 235 237 237 237 235 235 237 236 236 237 238 240 242 244 244 245 244
332 332 332 331 330 329 329 329 330 332 333 333 332 332 331 331 332 332 332 331 326 316 303 291 277 261 248 242 239 238 240 242 240 237 237 238 238 238 238 238 238 238 239 240 240 240 239 240 241 241 241 241 242 241 240 238 236 236 237 237 237 239 240 241 240 239 236 234 235 235 235 235 237 238 237 236 236 237 237 237 238 239 240 242 244 245 246 245
330 330 330 330 330 328 328 327 328 329 330 331 331 329 328 328 329 330 331 331 330 326 316 303 293 279 262 248 241 239 239 242 241 238 237 237 237 237 237 238 237 238 238 239 240 240 240 240 241 241 242 242 242 243 243 242 239 238 238 238 237 237 239 241 241 241 241 238 237 237 237 236 236 237 237 238 238 239 239 238 239 240 241 242 244 245 246 246
327 327 327 328 328 328 327 326 326 327 327 328 329 328 327 326 327 328 328 329 331 330 325 315 303 294 281 262 248 243 242 241 240 239 238 237 237 237 237 237 237 237 237 238 239 240 241 241 241 241 241 242 242 244 244 244 243 241 240 239 239 238 237 239 241 242 243 242 240 240 239 236 236 237 238 239 239 240 241 240 240 240 241 243 244 246 247 248
324 325 324 325 326 326 326 326 325 325 326 326 327 326 324 324 324 325 327 330 331 330 329 325 315 305 296 280 261 251 246 243 240 240 239 238 237 236 237 237 237 237 237 238 238 239 240 241 241 241 241 241 242 243 244 244 245 243 242 241 240 240 237 236 240 241 242 243 242 243 241 237 236 238 240 241 240 240 240 240 241 241 242 244 244 245 247 249
322 322 322 323 323 324 324 324 324 324 325 325 324 324 323 322 322 323 327 329 327 328 330 330 326 317 306 293 278 263 252 246 242 241 240 238 238 237 236 236 237 237 237 237 238 238 239 240 241 241 242 241 241 242 243 244 244 244 244 242 240 240 237 236 239 240 241 243 243 244 243 238 236 239 240 241 241 241 240 240 242 242 243 244 245 246 247 248
320 320 320 320 321 321 322 323 323 323 323 323 323 323 322 321 320 322 324 324 324 329 330 328 328 324 315 303 292 280 266 254 247 244 242 240 239 238 237 236 237 237 237 237 237 238 238 239 240 240 241 241 241 242 242 243 243 244 244 243 242 241 238 238 240 240 241 243 243 245 244 240 238 240 241 243 243 242 240 239 242 243 244 245 246 247 247 248
319 318 318 319 320 319 320 321 321 322 322 322 322 321 321 321 320 319 319 319 324 329 328 326 328 326 322 315 304 295 284 268 255 249 245 243 241 239 238 237 237 237 237 237 237 237 238 238 239 240 240 241 241 242 242 243 243 244 245 244 243 243 242 241 242 242 244 245 244 245 245 242 242 241 241 244 245 243 241 239 241 243 244 245 246 247 248 249
318 318 318 318 318 318 318 318 319 320 320 320 320 320 320 321 319 316 318 322 326 328 329 328 327 324 324 322 315 307 299 286 271 259 251 247 244 242 240 238 238 237 237 238 238 237 237 238 239 239 240 240 241 242 242 242 242 244 245 244 244 244 244 244 244 245 246 248 247 247 245 243 244 244 241 242 243 243 242 240 240 241 244 245 246 247 248 248
318 318 318 317 318 318 317 317 317 317 318 318 318 318 318 318 318 319 322 326 328 328 328 326 324 322 322 324 323 318 309 297 285 272 260 253 249 247 244 241 239 238 238 238 238 238 237 238 238 238 238 239 240 242 243 243 243 244 245 245 245 246 247 247 248 249 249 250 250 250 246 242 244 246 242 239 240 241 241 241 241 240 242 244 245 246 247 248
317 317 317 317 317 317 316 316 316 316 316 316 317 317 318 320 321 322 321 322 323 323 321 321 321 321 322 324 326 325 318 308 295 283 271 261 254 251 248 245 242 240 239 239 239 239 238 238 237 237 238 239 241 243 243 243 243 244 245 246 246 247 247 247 249 249 249 248 247 247 245 240 241 244 242 239 237 237 238 239 240 240 241 242 244 245 246 247
317 317 317 317 317 316 316 315 315 316 315 315 315 313 313 312 308 309 312 315 317 317 317 318 320 322 322 323 325 326 324 317 305 293 282 269 259 253 250 249 246 244 242 240 240 240 239 238 237 237 237 239 241 242 242 242 242 243 244 245 245 245 245 245 247 247 247 247 245 245 245 241 241 242 242 241 237 235 236 238 240 241 242 242 243 245 245 246
316 316 316 316 316 316 315 315 315 316 315 315 314 312 310 307 302 301 306 311 315 316 318 319 320 321 322 322 325 326 326 322 314 304 294 283 271 261 254 250 248 246 244 243 241 241 241 239 237 236 237 238 239 240 240 240 240 241 242 243 243 244 243 243 245 246 247 247 245 244 245 243 242 242 243 242 239 236 236 238 240 241 243 244 244 245 245 246
316 316 316 316 316 315 315 315 316 316 316 316 316 315 314 313 312 310 309 312 316 317 318 319 319 320 321 322 324 325 325 324 318 311 303 295 285 273 263 256 252 249 246 244 243 242 242 240 238 237 238 237 238 239 240 240 240 240 241 241 242 242 243 243 244 245 246 247 245 244 244 242 242 243 242 241 241 238 237 237 238 240 243 245 246 245 245 246
316 316 316 316 315 315 315 315 315 316 316 316 317 317 316 315 315 313 312 314 317 318 317 319 319 319 320 322 324 324 324 323 319 314 309 301 291 282 273 264 257 252 249 246 245 244 243 240 239 240 240 239 238 238 239 239 240 240 240 241 242 242 243 244 244 245 245 246 245 244 245 242 241 242 241 241 241 239 238 238 238 240 242 244 247 246 246 245
315 315 315 315 315 315 315 315 315 315 316 316 317 317 316 315 314 313 314 315 316 316 316 318 319 320 321 321 323 324 322 321 318 314 310 304 297 289 282 273 264 257 254 251 247 245 244 241 241 242 243 242 241 239 239 239 239 240 240 241 241 241 243 244 244 244 244 245 245 245 245 242 239 242 241 240 241 239 239 240 238 239 240 243 245 246 246 246
314 314 315 315 314 314 314 314 314 315 316 316 316 316 315 315 314 313 313 315 315 315 315 317 318 320 320 320 321 321 319 318 317 313 309 305 301 294 287 279 272 265 258 253 250 247 244 242 242 243 243 244 243 242 240 240 240 240 240 241 241 241 242 243 243 244 244 243 243 245 247 242 237 240 240 238 240 239 238 240 239 239 239 240 243 246 247 247
314 314 314 314 313 313 313 313 313 314 314 315 315 315 314 314 314 313 313 313 313 313 315 317 318 318 319 319 319 319 318 317 315 312 308 305 301 296 290 282 276 270 261 256 253 251 247 244 243 243 243 244 244 243 241 241 241 240 240 241 242 241 242 242 243 245 245 244 243 244 247 244 237 237 239 238 240 239 238 239 239 240 240 239 241 244 247 247
314 314 314 314 313 312 312 312 312 312 312 313 314 314 313 313 313 313 312 312 313 315 317 317 317 316 317 317 317 316 316 316 314 311 308 304 300 296 292 286 280 274 266 260 256 254 251 246 244 244 243 244 244 244 243 243 244 241 239 241 242 242 243 243 243 245 246 245 244 242 245 246 240 236 237 239 240 239 237 239 241 241 241 240 241 243 245 247
314 314 314 314 313 312 312 312 311 312 312 312 313 313 313 312 312 313 312 313 314 315 317 316 315 315 315 315 315 315 314 312 311 310 308 304 301 297 293 289 284 278 271 266 262 258 252 247 244 243 242 243 243 244 243 245 246 242 239 241 243 242 243 244 244 245 246 245 244 242 243 246 243 237 236 238 240 240 237 239 241 241 242 241 239 240 242 244
315 314 314 314 313 313 312 312 312 312 313 313 312 312 312 312 312 312 312 313 313 314 316 315 314 314 313 313 313 314 313 311 310 309 307 304 301 298 294 290 286 281 275 271 268 261 254 250 246 242 242 242 243 243 242 245 247 243 240 241 243 243 243 243 244 244 245 245 243 243 244 246 244 238 238 237 237 241 240 239 241 240 241 241 238 238 239 240
314 314 314 314 313 312 311 311 311 312 312 312 312 312 312 312 312 312 312 312 312 312 314 313 312 312 311 311 312 312 312 311 310 309 307 303 300 297 294 291 287 283 278 274 272 265 258 253 249 246 243 242 242 242 242 243 246 244 242 243 244 244 243 243 244 244 245 245 242 241 244 247 245 238 238 239 236 238 240 239 240 239 239 239 238 237 236 237
314 314 314 314 313 311 310 310 309 311 312 312 312 311 311 311 311 311 311 311 310 311 313 312 311 311 310 310 309 308 309 308 307 307 305 303 300 297 293 291 288 284 280 277 274 269 261 256 252 250 247 244 241 241 240 242 244 244 243 244 245 246 245 244 244 244 245 244 242 242 243 246 245 237 237 240 237 235 237 237 238 239 238 238 238 237 235 235
314 314 314 314 313 311 309 309 309 310 311 311 311 311 311 311 310 310 311 310 310 311 312 311 311 311 309 308 307 306 305 304 304 303 302 301 299 297 294 291 288 285 282 278 274 269 264 260 256 254 251 247 243 241 240 239 241 242 243 244 244 246 247 247 245 244 245 245 242 242 242 244 245 238 236 239 238 236 236 235 236 237 238 238 237 236 235 234
314 314 314 314 312 310 308 308 308 309 310 310 310 310 311 310 310 310 310 310 311 311 310 310 310 309 308 307 306 305 304 304 303 301 300 299 298 296 294 291 288 285 282 278 274 269 265 261 258 256 253 250 247 244 242 239 239 241 242 243 243 243 246 248 247 246 247 246 243 242 243 244 243 238 236 239 239 238 236 235 235 235 235 237 237 236 235 234
313 314 313 313 312 309 307 307 308 308 309 309 309 309 310 309 309 309 309 309 310 309 309 309 309 308 308 307 306 305 305 304 303 301 300 299 298 296 294 290 288 285 283 279 275 270 266 262 259 257 255 252 249 248 245 242 240 238 239 242 242 241 243 247 250 250 250 248 244 243 245 246 243 237 236 240 241 240 238 234 235 234 232 234 236 236 235 234
313 313 313 313 311 307 306 306 307 308 308 308 308 308 308 308 308 308 308 309 308 308 308 308 308 308 308 307 306 306 305 304 302 301 300 299 298 297 294 291 288 285 282 280 276 271 267 264 261 257 255 253 250 248 246 245 242 239 236 238 239 241 242 245 248 251 253 252 247 244 246 249 246 237 234 239 240 241 240 236 234 234 233 232 232 235 235 233
313 312 312 313 310 307 305 306 307 307 306 306 306 306 306 307 308 307 308 308 307 307 307 307 307 307 307 306 306 306 305 303 302 301 301 300 299 297 294 291 288 285 282 279 276 272 267 264 261 257 253 251 250 248 246 245 245 243 239 238 238 241 244 245 247 246 249 252 249 246 246 249 246 237 232 236 239 241 242 239 235 234 233 232 230 230 232 231
312 311 311 312 309 305 304 305 305 305 305 305 305 305 305 305 305 306 306 306 305 306 306 306 307 306 306 306 307 306 305 304 303 301 301 300 299 298 294 291 289 285 282 278 275 272 268 265 261 258 254 251 250 248 245 245 246 244 243 242 241 241 241 243 246 245 244 246 247 247 247 247 244 237 232 233 237 240 243 241 238 234 233 234 230 228 229 229
310 309 310 311 307 303 303 303 303 303 303 303 304 304 303 303 304 304 304 304 305 305 305 306 307 306 306 307 307 306 305 305 303 302 301 300 299 298 295 292 289 284 280 277 273 270 269 266 261 256 254 253 251 249 245 241 242 243 243 242 241 243 242 240 242 244 244 246 247 247 247 247 244 237 232 233 235 238 241 242 241 237 234 234 232 229 228 227
309 309 310 310 305 303 303 302 302 303 302 302 304 303 303 303 303 303 303 303 304 305 305 306 306 305 306 306 306 306 305 304 302 301 301 300 299 297 295 292 288 283 280 276 272 269 268 266 261 254 252 252 251 250 247 240 237 240 241 237 236 242 245 242 241 242 245 247 249 248 248 248 245 237 232 233 234 236 239 240 241 240 236 234 233 232 230 227
308 308 310 308 304 303 302 301 302 302 302 302 303 302 302 303 303 302 302 302 303 304 305 305 305 305 306 306 306 306 304 302 301 300 300 299 298 296 292 289 286 283 280 276 272 269 267 265 263 256 249 248 247 247 248 245 238 236 238 235 231 234 239 242 242 242 243 246 248 249 249 249 247 240 233 233 234 236 238 238 238 239 238 235 233 233 232 230
307 308 309 307 304 304 302 301 303 302 301 302 302 301 301 302 302 301 301 302 302 303 303 303 303 304 305 305 306 305 302 300 300 299 298 298 296 292 289 287 284 282 280 277 274 271 268 266 265 260 250 246 245 244 246 247 242 234 233 233 231 232 235 238 240 239 240 243 245 247 248 249 247 241 236 235 234 235 237 237 236 238 237 236 234 233 233 231
307 307 308 306 305 304 301 301 302 301 299 301 301 301 301 302 301 301 301 302 302 302 302 301 301 303 304 305 304 301 299 299 298 297 297 295 291 288 286 284 282 281 279 278 276 274 271 268 266 263 256 248 243 241 242 244 243 237 231 229 228 230 233 236 238 238 238 240 242 244 246 247 245 241 238 237 235 235 236 237 237 238 238 237 236 234 233 232
306 307 307 305 303 302 300 301 302 299 299 301 301 300 301 301 301 301 302 302 301 302 301 300 300 301 302 302 300 298 297 296 296 296 293 290 287 285 283 281 280 279 278 278 277 274 272 269 267 265 261 253 243 239 239 240 240 239 234 229 226 226 228 233 236 237 237 238 240 243 243 243 242 241 239 237 236 235 236 238 239 239 239 239 238 236 234 233
306 306 306 304 302 300 300 302 302 300 300 302 301 300 301 301 300 301 301 301 302 302 300 299 300 300 300 299 297 296 295 294 294 293 288 285 283 281 278 277 278 277 277 278 277 273 270 269 268 265 262 257 247 239 237 236 236 237 236 232 228 225 226 230 232 234 236 236 237 241 243 241 238 238 238 237 235 235 237 239 240 241 240 240 240 239 236 234
305 306 305 304 302 300 300 301 301 300 301 302 301 301 301 301 300 299 300 301 302 301 299 299 299 299 299 298 296 295 293 291 290 287 283 281 281 278 274 274 275 275 276 275 273 272 270 268 268 268 266 262 254 243 239 237 234 233 235 235 232 228 227 228 231 233 234 233 231 235 241 242 240 236 235 236 235 235 237 239 241 242 241 241 241 241 239 237
306 306 306 305 303 301 302 303 301 300 301 301 301 301 302 301 300 300 301 301 301 299 298 299 300 299 298 297 296 295 292 287 284 280 279 279 278 275 272 271 271 272 274 274 272 271 271 269 269 270 269 268 264 252 243 241 236 231 231 233 234 233 230 229 231 232 234 233 230 231 235 239 242 240 236 235 235 235 237 239 241 242 241 241 241 241 241 239
306 306 308 307 304 304 305 305 303 302 302 301 301 302 302 301 301 302 303 303 301 299 298 299 299 298 297 296 295 292 289 285 281 277 276 277 276 273 270 267 268 271 274 275 274 273 272 272 272 272 269 269 270 262 251 247 242 235 232 230 232 234 233 232 233 233 234 236 232 230 233 234 236 240 238 235 234 235 235 238 240 241 241 240 240 241 241 241
307 307 308 307 305 305 306 306 306 305 304 304 303 303 302 303 304 304 304 303 301 299 299 299 298 297 296 295 292 289 287 284 280 277 277 278 276 271 267 265 267 273 277 276 276 277 275 273 275 277 273 269 270 270 263 255 249 243 237 233 231 233 234 234 235 234 236 240 236 228 232 234 230 234 239 236 233 232 233 235 238 240 241 241 241 241 241 241
308 308 308 306 304 304 305 306 306 305 305 305 304 304 304 305 304 304 304 301 299 298 298 297 296 295 295 292 287 284 283 281 280 279 281 280 275 270 269 269 269 270 272 275 276 276 275 274 275 278 277 272 269 273 273 267 258 249 243 237 233 233 234 234 235 234 235 241 239 232 232 234 228 227 233 236 235 232 231 233 235 238 240 242 242 241 241 241
309 308 308 306 304 304 305 305 305 304 304 304 304 304 305 304 303 303 302 297 295 295 294 293 293 293 290 285 281 280 281 281 280 281 282 281 274 269 270 271 267 260 262 269 272 272 272 272 273 277 278 274 274 277 279 279 270 256 247 243 237 233 233 234 236 236 235 238 239 236 235 233 226 224 228 231 235 234 230 231 233 235 238 240 242 242 241 241
309 308 308 306 304 304 305 305 305 304 303 304 304 304 302 301 301 301 297 293 292 290 287 286 286 282 278 276 275 277 279 278 276 276 276 275 270 266 267 266 261 256 259 266 268 269 270 272 274 278 278 278 280 281 279 281 279 266 254 251 246 239 236 235 235 237 237 237 237 237 236 231 225 227 230 229 231 233 230 229 231 233 237 239 241 242 242 242
309 307 307 305 303 304 305 304 303 303 303 304 304 301 299 299 299 296 291 289 288 284 280 278 276 274 272 272 273 276 277 275 274 272 270 270 268 263 261 260 256 255 262 267 267 267 268 271 274 276 277 279 279 278 277 278 277 272 264 262 256 248 242 238 236 236 236 237 238 237 236 230 224 227 232 230 231 232 231 229 230 232 235 238 240 241 242 242
Height
5720 5719 5717 5716 5715 5714 5713 5712 5710 5708 5706 5705 5705 5706 5707 5709 5709 5710 5710 5711 5711 5712 5714 5715 5717 5719 5721 5723 5725 5726 5728 5729 5729 5731 5732 5733 5734 5736 5737 5739 5740 5742 5743 5745 5747 5749 5750 5752 5753 5755 5757 5760 5762 5764 5766 5767 5770 5771 5773 5774 5776 5779 5784 5788 5792 5796 5801 5805 5806 5804 5803 5803 5805 5808 5810 5813 5814 5815 5817 5820 5822 5825 5827 5829 5832 5833 5833 5834
5720 5717 5715 5714 5712 5711 5711 5710 5709 5708 5705 5703 5701 5700 5701 5702 5704 5705 5706 5706 5706 5707 5708 5710 5711 5713 5715 5717 5720 5721 5723 5724 5725 5726 5727 5729 5729 5731 5733 5734 5736 5737 5739 5740 5742 5744 5745 5746 5747 5749 5752 5754 5756 5758 5759 5761 5763 5765 5767 5768 5770 5776 5780 5785 5788 5791 5794 5798 5800 5799 5798 5798 5800 5803 5805 5808 5811 5812 5814 5817 5819 5822 5825 5826 5827 5827 5829 5830
5719 5717 5714 5712 5710 5709 5708 5707 5706 5706 5704 5702 5700 5698 5696 5696 5697 5698 5700 5701 5701 5702 5702 5703 5705 5707 5709 5711 5713 5716 5717 5718 5720 5721 5723 5724 5724 5726 5728 5729 5731 5732 5734 5735 5736 5738 5740 5741 5742 5744 5747 5748 5751 5752 5753 5756 5757 5760 5761 5761 5766 5771 5773 5778 5782 5785 5788 5791 5793 5794 5793 5793 5796 5798 5800 5803 5807 5809 5811 5814 5817 5820 5821 5820 5820 5823 5826 5828
5718 5716 5714 5712 5709 5707 5705 5704 5703 5702 5701 5700 5699 5697 5694 5692 5691 5691 5693 5694 5696 5697 5697 5698 5699 5701 5702 5705 5707 5709 5712 5713 5714 5716 5718 5719 5720 5721 5723 5724 5726 5727 5729 5730 5731 5732 5734 5736 5738 5740 5741 5743 5746 5747 5748 5751 5752 5754 5755 5758 5763 5765 5766 5771 5775 5778 5782 5785 5787 5788 5787 5789 5792 5792 5794 5798 5800 5804 5808 5812 5815 5815 5814 5814 5815 5819 5822 5825
5717 5715 5713 5711 5709 5706 5704 5702 5700 5699 5697 5696 5695 5695 5693 5691 5688 5687 5686 5687 5688 5690 5692 5692 5693 5694 5696 5698 5701 5703 5705 5706 5708 5711 5711 5713 5715 5716 5717 5719 5720 5722 5723 5725 5727 5727 5728 5730 5732 5734 5735 5738 5740 5741 5744 5746 5747 5748 5751 5755 5756 5757 5759 5763 5768 5771 5775 5777 5780 5783 5783 5785 5786 5786 5789 5792 5794 5800 5806 5809 5810 5809 5808 5809 5812 5815 5818 5820
5716 5714 5712 5710 5708 5705 5703 5701 5699 5697 5695 5693 5691 5690 5689 5688 5686 5684 5683 5681 5682 5683 5684 5686 5687 5688 5689 5692 5694 5696 5699 5700 5703 5704 5705 5707 5708 5710 5711 5714 5715 5716 5718 5719 5721 5722 5723 5724 5726 5728 5730 5732 5734 5736 5740 5740 5740 5742 5747 5749 5749 5750 5751 5755 5760 5763 5766 5770 5774 5777 5779 5779 5779 5781 5784 5785 5790 5796 5800 5803 5803 5803 5805 5805 5807 5811 5814 5816
5714 5712 5710 5708 5706 5704 5702 5700 5698 5695 5693 5691 5688 5687 5685 5684 5683 5682 5680 5678 5677 5676 5677 5678 5680 5682 5683 5685 5687 5689 5693 5695 5696 5697 5699 5700 5701 5703 5705 5708 5710 5711 5712 5713 5715 5716 5717 5718 5720 5722 5723 5726 5728 5731 5733 5734 5734 5736 5741 5743 5742 5743 5744 5748 5752 5755 5758 5762 5767 5770 5771 5772 5773 5776 5777 5780 5786 5790 5793 5796 5797 5798 5800 5800 5802 5806 5810 5812
5712 5711 5709 5707 5705 5703 5700 5698 5696 5694 5692 5689 5687 5684 5682 5680 5679 5679 5678 5676 5674 5672 5671 5671 5672 5674 5676 5679 5680 5683 5687 5687 5687 5690 5692 5693 5695 5697 5699 5701 5703 5705 5706 5707 5709 5710 5711 5713 5714 5715 5717 5720 5721 5724 5726 5726 5728 5730 5735 5737 5736 5737 5738 5741 5744 5747 5749 5753 5757 5760 5764 5767 5767 5768 5769 5774 5780 5784 5787 5789 5791 5793 5794 5795 5798 5800 5804 5808
5710 5708 5707 5705 5703 5701 5698 5696 5694 5692 5690 5687 5685 5682 5680 5678 5676 5674 5674 5673 5671 5669 5667 5666 5666 5667 5669 5672 5673 5677 5681 5677 5679 5683 5683 5686 5688 5689 5692 5694 5696 5698 5699 5701 5703 5704 5705 5707 5708 5709 5710 5713 5714 5717 5719 5719 5722 5725 5727 5729 5730 5731 5732 5734 5737 5740 5742 5745 5747 5750 5756 5760 5760 5759 5761 5769 5775 5778 5781 5783 5785 5787 5789 5790 5792 5794 5798 5802
5708 5706 5704 5702 5700 5698 5696 5694 5692 5690 5688 5685 5683 5680 5678 5676 5673 5671 5670 5669 5667 5666 5664 5662 5662 5661 5662 5663 5665 5672 5674 5667 5669 5674 5675 5678 5680 5682 5685 5687 5690 5692 5692 5694 5696 5698 5700 5701 5701 5702 5704 5706 5708 5710 5712 5713 5717 5720 5719 5722 5725 5725 5726 5728 5730 5733 5735 5737 5739 5741 5745 5751 5752 5751 5755 5765 5769 5771 5774 5777 5780 5782 5784 5785 5786 5788 5791 5794
5706 5704 5702 5700 5698 5696 5694 5692 5690 5688 5686 5683 5681 5678 5675 5673 5671 5669 5667 5665 5663 5662 5660 5658 5657 5656 5655 5656 5659 5664 5663 5656 5659 5665 5667 5670 5672 5674 5677 5680 5683 5684 5685 5688 5689 5691 5694 5695 5695 5696 5698 5700 5702 5704 5706 5708 5711 5713 5713 5715 5719 5720 5720 5722 5725 5727 5729 5731 5734 5735 5736 5741 5743 5745 5752 5759 5762 5765 5767 5773 5776 5776 5777 5778 5780 5782 5784 5787
5704 5702 5700 5698 5696 5693 5691 5689 5687 5685 5683 5681 5678 5675 5672 5670 5668 5666 5664 5662 5660 5658 5656 5655 5653 5652 5651 5652 5653 5652 5648 5647 5653 5657 5659 5661 5663 5667 5670 5672 5675 5676 5679 5680 5681 5684 5687 5688 5688 5690 5693 5694 5697 5698 5699 5702 5704 5706 5707 5707 5711 5714 5714 5718 5720 5721 5722 5724 5728 5727 5725 5730 5736 5743 5749 5751 5757 5760 5761 5766 5768 5768 5770 5772 5775 5777 5778 5781
5701 5699 5697 5695 5693 5691 5689 5686 5684 5682 5680 5678 5676 5673 5670 5667 5666 5664 5662 5659 5657 5655 5653 5652 5650 5648 5648 5647 5644 5640 5639 5643 5647 5647 5648 5653 5656 5659 5661 5663 5666 5668 5670 5672 5673 5677 5679 5681 5682 5684 5686 5687 5690 5691 5693 5696 5696 5699 5700 5701 5704 5705 5709 5715 5715 5714 5716 5716 5720 5719 5714 5722 5735 5740 5741 5743 5748 5750 5753 5759 5759 5761 5764 5765 5769 5771 5773 5774
5699 5697 5694 5693 5691 5689 5686 5684 5682 5679 5677 5675 5673 5670 5667 5664 5662 5661 5659 5656 5654 5652 5650 5648 5646 5645 5643 5641 5638 5635 5635 5637 5639 5638 5640 5645 5649 5650 5651 5654 5657 5658 5662 5663 5665 5669 5671 5673 5675 5678 5679 5681 5684 5685 5687 5688 5689 5693 5692 5693 5696 5697 5704 5709 5707 5708 5709 5709 5712 5710 5706 5718 5730 5732 5733 5736 5738 5740 5746 5751 5750 5753 5757 5759 5762 5764 5767 5768
5696 5694 5691 5689 5688 5686 5684 5682 5679 5677 5674 5672 5669 5667 5664 5661 5658 5657 5656 5654 5652 5649 5647 5645 5642 5640 5639 5637 5633 5632 5631 5631 5631 5631 5633 5636 5638 5639 5642 5646 5648 5650 5653 5654 5657 5660 5663 5665 5667 5670 5671 5675 5677 5678 5680 5681 5683 5685 5684 5688 5691 5692 5697 5701 5701 5702 5703 5703 5704 5701 5701 5713 5722 5724 5728 5728 5729 5733 5738 5742 5742 5746 5750 5752 5755 5757 5760 5761
5693 5691 5688 5686 5684 5682 5681 5679 5677 5674 5671 5669 5666 5664 5661 5657 5654 5653 5652 5651 5649 5647 5644 5641 5639 5636 5635 5633 5630 5628 5627 5627 5626 5625 5626 5628 5629 5631 5635 5638 5640 5642 5644 5646 5649 5652 5654 5657 5659 5661 5664 5667 5669 5671 5674 5673 5676 5679 5679 5683 5684 5685 5689 5692 5694 5697 5698 5696 5696 5695 5697 5706 5712 5718 5722 5720 5722 5726 5728 5733 5736 5738 5742 5744 5748 5750 5753 5754
5690 5687 5685 5683 5681 5679 5677 5675 5674 5672 5669 5666 5663 5661 5658 5655 5651 5648 5647 5646 5645 5643 5640 5637 5635 5632 5630 5628 5626 5624 5623 5622 5621 5620 5621 5621 5622 5625 5627 5630 5632 5634 5637 5639 5640 5643 5646 5647 5649 5653 5657 5659 5662 5665 5664 5665 5672 5675 5674 5675 5676 5678 5680 5684 5689 5692 5692 5689 5690 5692 5691 5699 5706 5709 5714 5715 5716 5718 5721 5725 5728 5731 5734 5737 5740 5742 5745 5747
5686 5684 5681 5679 5677 5675 5673 5672 5670 5668 5666 5664 5661 5658 5656 5653 5648 5643 5641 5641 5640 5638 5636 5634 5631 5628 5627 5625 5622 5621 5619 5617 5616 5615 5615 5616 5617 5618 5620 5622 5624 5627 5630 5630 5632 5635 5636 5637 5640 5644 5648 5652 5656 5657 5656 5663 5669 5667 5665 5667 5669 5671 5674 5681 5685 5686 5686 5683 5685 5685 5685 5694 5700 5698 5704 5709 5710 5712 5715 5716 5719 5724 5727 5730 5733 5735 5739 5741
5683 5681 5678 5675 5673 5671 5669 5667 5666 5664 5663 5660 5658 5655 5652 5650 5646 5640 5637 5638 5638 5636 5634 5632 5628 5625 5623 5621 5619 5617 5615 5613 5611 5610 5610 5610 5611 5611 5612 5614 5617 5620 5622 5623 5626 5626 5626 5628 5629 5634 5643 5649 5652 5650 5651 5658 5659 5656 5659 5661 5663 5665 5668 5676 5678 5676 5678 5674 5676 5678 5679 5687 5689 5687 5693 5700 5703 5704 5707 5709 5712 5717 5720 5724 5726 5730 5733 5735
5680 5678 5675 5672 5669 5667 5664 5662 5661 5660 5658 5657 5655 5652 5651 5649 5648 5644 5637 5635 5635 5634 5631 5629 5625 5622 5619 5617 5616 5613 5611 5609 5607 5606 5604 5604 5604 5604 5605 5607 5610 5612 5615 5618 5617 5615 5616 5616 5621 5634 5643 5644 5641 5638 5643 5648 5646 5647 5650 5651 5655 5656 5661 5670 5668 5665 5667 5663 5667 5673 5672 5675 5677 5679 5684 5690 5694 5698 5702 5705 5706 5710 5714 5718 5721 5724 5728 5731
5677 5674 5671 5668 5665 5662 5660 5658 5656 5655 5653 5651 5649 5647 5646 5645 5643 5642 5637 5632 5631 5629 5627 5625 5622 5618 5615 5613 5612 5610 5608 5605 5604 5602 5600 5600 5599 5599 5599 5600 5602 5605 5608 5608 5606 5606 5607 5609 5621 5634 5633 5629 5627 5628 5633 5635 5635 5637 5638 5641 5646 5647 5655 5662 5656 5655 5656 5653 5661 5668 5662 5664 5670 5671 5675 5680 5686 5694 5699 5699 5700 5705 5708 5711 5715 5719 5722 5725
5673 5670 5668 5665 5662 5658 5656 5653 5651 5649 5647 5646 5644 5641 5640 5638 5636 5634 5632 5628 5626 5624 5622 5620 5618 5615 5612 5609 5608 5607 5605 5602 5600 5598 5597 5596 5595 5594 5593 5594 5595 5597 5598 5596 5597 5600 5599 5606 5622 5625 5618 5617 5618 5619 5622 5623 5625 5626 5629 5632 5636 5644 5651 5650 5646 5647 5645 5643 5653 5657 5651 5656 5662 5661 5666 5672 5678 5688 5691 5690 5695 5699 5701 5704 5709 5713 5716 5718
5669 5666 5664 5661 5658 5655 5651 5649 5646 5644 5643 5640 5638 5636 5634 5633 5631 5629 5627 5623 5620 5618 5616 5614 5613 5610 5608 5605 5604 5602 5601 5599 5596 5593 5593 5592 5590 5589 5588 5588 5588 5588 5589 5589 5591 5592 5592 5606 5618 5612 5607 5608 5608 5610 5612 5614 5615 5616 5621 5624 5630 5643 5642 5636 5638 5638 5634 5635 5643 5645 5642 5648 5653 5651 5659 5668 5673 5680 5681 5684 5691 5693 5695 5700 5702 5705 5708 5711
5666 5663 5660 5657 5654 5651 5648 5645 5641 5639 5637 5635 5633 5631 5629 5628 5626 5624 5622 5620 5617 5614 5611 5609 5607 5604 5602 5601 5600 5598 5596 5595 5592 5589 5588 5587 5586 5585 5584 5583 5581 5582 5584 5583 5583 5580 5586 5603 5607 5598 5598 5599 5599 5602 5603 5603 5606 5610 5614 5617 5626 5636 5630 5626 5629 5625 5623 5626 5631 5635 5631 5635 5645 5646 5653 5663 5665 5670 5675 5678 5684 5687 5691 5695 5696 5698 5701 5705
5662 5659 5656 5653 5650 5647 5644 5641 5638 5634 5632 5630 5628 5626 5624 5622 5621 5618 5617 5616 5614 5610 5607 5604 5601 5600 5598 5596 5595 5593 5592 5591 5589 5586 5583 5582 5581 5580 5579 5577 5576 5578 5577 5574 5572 5570 5581 5597 5594 5587 5590 5591 5591 5594 5595 5597 5600 5603 5607 5613 5622 5625 5617 5615 5615 5612 5612 5614 5624 5630 5617 5621 5640 5640 5645 5657 5658 5663 5670 5671 5675 5682 5686 5689 5690 5692 5695 5698
5658 5655 5652 5649 5645 5643 5640 5637 5634 5631 5628 5626 5624 5621 5619 5617 5615 5613 5611 5611 5610 5607 5604 5601 5597 5595 5593 5592 5590 5588 5586 5585 5584 5581 5579 5577 5575 5574 5573 5571 5570 5571 5569 5566 5563 5565 5579 5589 5581 5578 5583 5582 5580 5584 5588 5592 5592 5594 5604 5612 5613 5609 5603 5604 5607 5603 5600 5605 5620 5620 5604 5610 5629 5632 5640 5652 5652 5657 5663 5663 5670 5678 5680 5683 5686 5688 5689 5691
5653 5650 5647 5644 5641 5638 5636 5633 5630 5627 5625 5622 5619 5616 5614 5611 5609 5607 5605 5604 5604 5602 5600 5597 5593 5590 5588 5587 5585 5584 5582 5580 5578 5576 5573 5571 5570 5568 5566 5565 5565 5564 5562 5559 5558 5565 5575 5577 5570 5569 5572 5571 5570 5576 5585 5589 5583 5588 5604 5605 5598 5596 5593 5595 5598 5592 5591 5601 5607 5603 5599 5604 5615 5628 5643 5646 5643 5650 5657 5660 5668 5673 5674 5678 5682 5683 5684 5685
5649 5645 5642 5639 5636 5632 5630 5628 5625 5623 5620 5617 5614 5612 5609 5606 5604 5602 5599 5597 5597 5596 5595 5593 5589 5585 5583 5581 5580 5579 5577 5575 5574 5571 5568 5565 5563 5562 5560 5559 5558 5557 5557 5552 5554 5564 5565 5561 5559 5558 5558 5559 5564 5573 5582 5580 5572 5582 5597 5591 5585 5588 5585 5586 5587 5583 5586 5590 5586 5590 5598 5599 5606 5626 5639 5637 5635 5643 5654 5661 5665 5668 5669 5672 5675 5676 5677 5679
5644 5641 5638 5635 5631 5627 5623 5621 5619 5617 5615 5612 5609 5606 5604 5601 5598 5596 5594 5592 5590 5590 5590 5588 5585 5582 5578 5575 5573 5572 5570 5568 5567 5565 5564 5560 5557 5555 5552 5552 5551 5550 5550 5547 5550 5558 5554 5550 5549 5547 5548 5553 5559 5568 5572 5567 5563 5576 5585 5577 5576 5578 5576 5579 5576 5575 5579 5573 5572 5586 5593 5592 5603 5620 5625 5626 5634 5643 5653 5658 5658 5662 5662 5663 5667 5668 5671 5674
5639 5636 5633 5630 5627 5623 5619 5615 5612 5611 5610 5607 5604 5601 5599 5596 5593 5590 5588 5586 5583 5583 5584 5582 5581 5578 5574 5571 5568 5566 5564 5561 5558 5557 5557 5555 5552 5549 5546 5545 5544 5543 5543 5542 5544 5548 5546 5544 5540 5538 5544 5549 5553 5557 5559 5557 5558 5568 5573 5567 5569 5569 5568 5570 5566 5568 5566 5555 5565 5585 5591 5589 5594 5607 5613 5618 5635 5644 5647 5650 5651 5653 5654 5655 5659 5661 5664 5667
5633 5631 5627 5624 5621 5617 5614 5611 5608 5606 5604 5601 5598 5595 5593 5590 5588 5585 5582 5579 5577 5577 5577 5575 5573 5572 5569 5566 5563 5561 5560 5557 5554 5551 5549 5547 5546 5543 5541 5538 5536 5535 5536 5536 5537 5539 5537 5535 5533 5534 5538 5542 5544 5546 5548 5550 5552 5558 5561 5560 5562 5559 5560 5560 5555 5558 5549 5543 5566 5588 5591 5580 5573 5596 5611 5612 5628 5638 5637 5642 5645 5644 5647 5649 5652 5654 5657 5660
5627 5625 5622 5619 5615 5611 5608 5605 5603 5601 5599 5596 5593 5590 5587 5584 5582 5580 5576 5573 5570 5569 5569 5567 5566 5565 5563 5561 5557 5554 5554 5552 5550 5546 5544 5542 5539 5537 5534 5532 5530 5528 5529 5529 5530 5529 5527 5527 5528 5530 5532 5534 5535 5536 5540 5542 5543 5548 5551 5553 5553 5550 5550 5547 5544 5547 5538 5542 5570 5585 5579 5561 5557 5590 5609 5604 5618 5628 5629 5637 5638 5638 5641 5642 5644 5647 5650 5654
5621 5619 5616 5613 5609 5604 5601 5599 5597 5595 5593 5591 5588 5585 5582 5578 5574 5573 5570 5567 5564 5561 5560 5559 5558 5557 5555 5554 5551 5547 5545 5544 5543 5540 5537 5535 5533 5532 5528 5525 5523 5520 5520 5521 5522 5521 5519 5520 5522 5524 5525 5526 5526 5528 5532 5535 5536 5539 5542 5543 5543 5541 5541 5536 5535 5539 5534 5543 5567 5574 5563 5545 5546 5583 5604 5601 5609 5615 5621 5629 5629 5632 5636 5635 5638 5640 5643 5648
5615 5613 5610 5608 5604 5597 5594 5592 5590 5588 5587 5585 5582 5579 5576 5572 5569 5566 5563 5561 5558 5553 5552 5550 5549 5548 5546 5544 5543 5541 5538 5535 5533 5532 5530 5528 5526 5525 5522 5519 5516 5513 5511 5512 5513 5513 5510 5511 5516 5517 5517 5518 5520 5521 5524 5527 5527 5529 5534 5535 5532 5532 5533 5531 5531 5533 5532 5542 5558 5559 5546 5526 5536 5582 5604 5596 5598 5603 5610 5619 5620 5625 5630 5630 5632 5634 5638 5642
5609 5607 5604 5602 5598 5591 5587 5586 5584 5582 5580 5578 5576 5574 5570 5566 5562 5559 5556 5554 5551 5547 5544 5541 5539 5538 5537 5536 5534 5532 5530 5526 5524 5522 5521 5520 5518 5517 5515 5512 5510 5507 5504 5502 5503 5503 5501 5502 5508 5510 5510 5510 5512 5513 5516 5518 5515 5519 5526 5523 5519 5523 5528 5528 5527 5529 5531 5534 5539 5538 5529 5519 5538 5584 5596 5585 5590 5594 5595 5607 5614 5617 5621 5623 5626 5629 5632 5635
5603 5600 5598 5597 5592 5584 5580 5579 5577 5575 5573 5571 5569 5568 5565 5561 5556 5551 5548 5546 5543 5540 5537 5534 5531 5528 5527 5527 5526 5524 5521 5518 5516 5514 5512 5511 5510 5509 5507 5504 5502 5500 5498 5494 5493 5493 5491 5493 5498 5502 5503 5502 5502 5505 5509 5508 5506 5512 5515 5511 5515 5523 5525 5521 5518 5523 5526 5520 5520 5523 5523 5522 5538 5569 5583 5581 5585 5583 5584 5598 5606 5607 5612 5614 5619 5623 5624 5625
5596 5594 5593 5592 5586 5578 5574 5572 5570 5568 5566 5564 5562 5560 5558 5556 5551 5546 5542 5538 5535 5533 5529 5526 5524 5520 5517 5516 5516 5514 5511 5508 5506 5504 5503 5501 5500 5500 5498 5497 5495 5492 5491 5488 5485 5483 5481 5484 5490 5491 5492 5494 5494 5497 5500 5501 5501 5504 5503 5506 5517 5517 5513 5512 5510 5513 5515 5508 5509 5515 5517 5519 5529 5554 5576 5579 5577 5577 5579 5586 5590 5597 5604 5605 5611 5616 5615 5617
5587 5586 5587 5587 5580 5572 5567 5565 5564 5562 5559 5556 5555 5553 5550 5548 5545 5541 5536 5531 5527 5524 5521 5518 5514 5511 5509 5508 5506 5504 5501 5499 5496 5493 5493 5492 5491 5490 5488 5487 5486 5483 5482 5481 5478 5474 5471 5474 5481 5483 5482 5485 5487 5487 5492 5496 5494 5493 5496 5503 5509 5502 5501 5505 5502 5502 5503 5500 5503 5508 5512 5512 5518 5545 5568 5571 5572 5574 5570 5570 5576 5587 5594 5594 5601 5605 5605 5609
5578 5576 5579 5580 5574 5567 5562 5557 5556 5555 5551 5549 5548 5544 5540 5539 5538 5534 5530 5525 5521 5516 5513 5511 5506 5501 5500 5498 5496 5494 5491 5489 5487 5484 5483 5482 5481 5480 5478 5476 5475 5473 5473 5472 5470 5467 5464 5463 5468 5475 5476 5476 5479 5478 5481 5487 5487 5487 5490 5496 5498 5494 5494 5495 5493 5496 5498 5495 5496 5500 5504 5503 5510 5538 5562 5564 5566 5564 5557 5561 5568 5574 5579 5583 5589 5592 5594 5600
5569 5566 5569 5570 5565 5561 5556 5549 5548 5546 5541 5541 5540 5536 5531 5529 5528 5525 5522 5519 5515 5511 5506 5502 5499 5493 5490 5488 5485 5484 5480 5478 5478 5475 5473 5473 5472 5471 5468 5466 5465 5463 5462 5463 5461 5459 5457 5454 5456 5465 5469 5468 5471 5471 5470 5476 5481 5482 5483 5486 5488 5486 5486 5486 5486 5490 5492 5489 5490 5492 5492 5496 5508 5535 5553 5553 5552 5549 5546 5552 5554 5556 5562 5567 5573 5577 5581 5588
5560 5557 5559 5558 5555 5553 5547 5541 5539 5536 5531 5531 5532 5528 5523 5521 5518 5515 5513 5510 5507 5504 5499 5495 5492 5487 5481 5478 5476 5473 5469 5467 5468 5465 5464 5464 5462 5460 5459 5456 5455 5454 5452 5453 5452 5450 5449 5446 5445 5453 5460 5461 5463 5464 5464 5466 5471 5475 5475 5476 5478 5478 5479 5479 5477 5481 5484 5482 5483 5484 5484 5491 5506 5525 5536 5536 5536 5535 5535 5538 5541 5542 5546 5552 5559 5564 5568 5576
5552 5549 5549 5546 5544 5543 5537 5533 5532 5525 5521 5523 5523 5519 5515 5512 5508 5504 5504 5501 5497 5495 5490 5485 5484 5480 5474 5471 5466 5462 5458 5456 5457 5455 5454 5455 5453 5451 5449 5447 5446 5445 5443 5443 5443 5441 5440 5438 5438 5442 5448 5453 5455 5456 5457 5457 5460 5465 5466 5466 5470 5471 5471 5470 5468 5472 5475 5472 5474 5477 5477 5484 5497 5509 5518 5522 5525 5529 5529 5530 5534 5535 5538 5544 5551 5555 5560 5566
5543 5542 5540 5535 5534 5533 5527 5525 5524 5515 5510 5513 5513 5510 5508 5504 5499 5494 5493 5491 5487 5486 5480 5473 5473 5470 5467 5464 5457 5452 5449 5445 5445 5446 5445 5443 5444 5444 5441 5437 5437 5437 5435 5435 5435 5434 5432 5430 5430 5432 5435 5441 5446 5449 5449 5449 5451 5454 5454 5457 5460 5460 5460 5460 5461 5464 5464 5465 5470 5470 5468 5475 5486 5495 5505 5513 5519 5522 5521 5520 5522 5525 5529 5534 5538 5544 5552 5557
5532 5533 5531 5524 5522 5523 5520 5517 5512 5503 5500 5501 5499 5499 5499 5495 5490 5486 5484 5480 5477 5474 5469 5464 5462 5458 5457 5455 5448 5444 5441 5435 5433 5435 5434 5433 5434 5437 5434 5430 5429 5428 5428 5428 5426 5425 5425 5423 5422 5423 5424 5428 5435 5440 5441 5441 5442 5442 5442 5446 5449 5450 5450 5451 5454 5456 5454 5459 5465 5461 5459 5468 5478 5486 5495 5503 5509 5511 5510 5509 5510 5514 5519 5523 5527 5533 5540 5547
5521 5521 5521 5514 5507 5507 5511 5513 5505 5493 5490 5489 5485 5486 5487 5484 5481 5478 5475 5473 5468 5461 5454 5453 5451 5446 5444 5441 5437 5436 5434 5429 5424 5423 5423 5423 5425 5428 5427 5423 5422 5421 5421 5421 5418 5416 5417 5416 5416 5415 5415 5418 5424 5430 5432 5432 5433 5433 5433 5437 5440 5441 5442 5443 5446 5445 5444 5451 5456 5451 5452 5462 5470 5479 5486 5491 5497 5501 5501 5500 5500 5504 5510 5515 5519 5523 5529 5537
5508 5508 5509 5502 5491 5488 5494 5502 5498 5487 5483 5478 5471 5472 5473 5469 5467 5466 5464 5463 5460 5450 5442 5440 5438 5434 5430 5426 5423 5423 5424 5422 5417 5412 5413 5414 5416 5419 5419 5417 5416 5414 5413 5413 5411 5409 5409 5409 5411 5410 5409 5410 5413 5419 5423 5421 5421 5424 5427 5429 5431 5433 5435 5436 5435 5435 5437 5442 5443 5444 5450 5456 5462 5470 5477 5481 5487 5492 5493 5491 5492 5496 5501 5506 5510 5513 5518 5525
5498 5495 5497 5490 5477 5471 5473 5479 5480 5475 5473 5469 5461 5459 5459 5454 5452 5451 5448 5446 5444 5437 5431 5430 5426 5420 5417 5415 5412 5409 5411 5411 5408 5405 5404 5406 5408 5410 5410 5410 5409 5408 5407 5405 5403 5403 5401 5402 5405 5406 5405 5405 5406 5409 5413 5411 5410 5415 5418 5421 5424 5426 5426 5427 5425 5427 5432 5429 5430 5441 5447 5448 5454 5462 5467 5474 5478 5481 5483 5483 5484 5487 5491 5496 5500 5502 5507 5513
5490 5484 5485 5480 5467 5461 5460 5459 5457 5453 5452 5451 5446 5442 5442 5439 5438 5438 5433 5427 5422 5418 5417 5416 5413 5408 5405 5404 5400 5397 5399 5400 5398 5398 5399 5399 5401 5401 5402 5402 5402 5402 5401 5397 5396 5396 5393 5394 5399 5399 5399 5400 5400 5401 5402 5402 5403 5406 5409 5413 5417 5416 5416 5417 5417 5421 5423 5417 5422 5437 5439 5437 5450 5458 5461 5466 5468 5469 5473 5475 5477 5481 5482 5485 5489 5492 5498 5502
5481 5473 5472 5467 5456 5453 5453 5450 5445 5438 5434 5433 5427 5423 5424 5421 5421 5424 5421 5411 5402 5401 5401 5397 5397 5397 5394 5392 5389 5387 5389 5391 5390 5392 5394 5393 5394 5394 5394 5394 5395 5397 5395 5389 5389 5389 5385 5387 5392 5392 5391 5394 5396 5394 5394 5395 5395 5396 5399 5402 5406 5406 5406 5407 5408 5412 5414 5409 5415 5429 5428 5429 5444 5454 5457 5459 5458 5460 5465 5467 5471 5473 5472 5473 5477 5482 5488 5491
5470 5462 5458 5449 5439 5440 5442 5440 5437 5428 5424 5424 5415 5408 5408 5403 5401 5406 5405 5397 5390 5387 5385 5382 5382 5385 5382 5380 5378 5376 5381 5386 5385 5386 5389 5387 5387 5387 5386 5386 5388 5389 5387 5382 5381 5382 5379 5381 5385 5386 5384 5387 5391 5390 5386 5386 5386 5387 5389 5391 5394 5396 5397 5398 5400 5404 5406 5404 5408 5416 5416 5421 5439 5449 5451 5451 5450 5452 5457 5460 5463 5464 5462 5463 5467 5472 5477 5481
5461 5452 5449 5434 5422 5425 5426 5424 5423 5415 5409 5413 5406 5397 5394 5388 5387 5388 5383 5382 5382 5377 5374 5373 5373 5374 5372 5369 5366 5365 5372 5378 5376 5379 5382 5379 5379 5380 5378 5379 5381 5380 5377 5375 5374 5375 5375 5375 5379 5380 5377 5379 5385 5383 5377 5377 5377 5379 5384 5385 5386 5389 5390 5391 5393 5394 5395 5396 5399 5401 5403 5416 5436 5442 5439 5440 5442 5445 5450 5454 5455 5455 5455 5456 5459 5462 5467 5471
5452 5441 5439 5424 5408 5410 5413 5409 5408 5401 5395 5398 5393 5384 5379 5376 5375 5374 5365 5363 5368 5368 5367 5367 5365 5364 5361 5358 5358 5360 5364 5367 5366 5370 5372 5369 5370 5371 5370 5371 5373 5371 5370 5368 5367 5369 5371 5371 5373 5373 5370 5373 5377 5373 5370 5369 5368 5373 5380 5381 5379 5380 5381 5382 5383 5384 5386 5387 5388 5390 5395 5410 5428 5430 5427 5432 5437 5439 5444 5448 5448 5448 5449 5450 5451 5453 5457 5462